Lid_Strength_Index
10 11 11 13 13 14 14 13 13 13 13 13 13 14 14 14 14 14 15 15 15 14
11 12 13 13 14 14 14 13 14 14 14 14 14 14 15 15 15 15 15 15 15 14
13 14 14 14 14 14 14 14 14 14 15 15 15 15 16 16 15 15 15 14 14 13
14 14 14 15 15 15 15 15 15 15 15 15 16 16 16 16 15 15 15 14 13 13
14 15 15 15 15 14 15 15 15 15 15 16 15 15 16 15 14 15 14 14 13 13
15 15 16 15 15 14 15 15 15 15 15 15 14 14 14 14 14 14 14 13 13 13
16 16 15 15 15 15 15 15 16 15 15 14 13 13 13 14 14 14 13 13 13 12
15 14 14 15 15 15 15 15 15 14 14 13 13 12 13 13 14 14 14 13 12 11
14 15 15 15 15 16 15 15 14 14 14 14 13 11 10 11 13 13 13 12 11 10
15 15 15 15 16 16 15 15 15 15 15 15 15 10 10 10 12 12 12 11 11 10
15 15 16 17 16 15 15 15 15 15 15 15 14 10 10 10 12 11 11 10 9 9
16 17 17 16 16 16 16 16 16 15 15 15 15 11 10 10 11 11 10 9 9 9
16 17 16 16 16 16 16 15 14 15 15 13 14 11 9 9 10 10 10 9 9 7
16 16 16 16 16 16 16 16 16 15 15 15 13 12 8 7 9 9 10 10 10 10